CW4829 Weather Reports


Display with metric or nautical units.
time (UTC)temp
F
wind
direction
speed
MPH
gust
MPH
rain 1hr
in
rain 24hr
in
rain mn
in
humidity
%
barometer
mb
20260831193130 86 180 2.0 7.0 0.00 0.00 0.00 62 1015.4
20260831192016 86 187 3.0 8.0 0.00 0.00 0.00 63 1015.5
20260831191543 87 198 2.0 6.0 0.00 0.00 0.00 64 1015.5
20260831191053 87 213 3.0 7.0 0.00 0.00 0.00 64 1015.5
20260831190539 87 254 3.0 7.0 0.00 0.00 0.00 63 1015.5
20260831190045 87 205 3.0 8.0 0.00 0.00 0.00 63 1015.5
20260831185045 86 317 3.0 8.0 0.00 0.00 0.00 64 1015.9
20260831184548 87 302 4.0 8.0 0.00 0.00 0.00 62 1015.9
20260831184045 87 235 2.0 7.0 0.00 0.00 0.00 63 1016.0
20260831183558 87 297 3.0 7.0 0.00 0.00 0.00 63 1016.0
20260831182520 86 284 3.0 8.0 0.00 0.00 0.00 62 1016.1
20260831182110 86 294 4.0 11.0 0.00 0.00 0.00 62 1016.1
20260831181608 86 175 4.0 11.0 0.00 0.00 0.00 62 1016.1
20260831181107 86 218 3.0 8.0 0.00 0.00 0.00 64 1016.3
20260831180613 86 170 3.0 8.0 0.00 0.00 0.00 64 1016.3
20260831175549 86 261 4.0 8.0 0.00 0.00 0.00 65 1016.4
20260831174532 86 229 2.0 6.0 0.00 0.00 0.00 65 1016.4
20260831174055 86 185 3.0 6.0 0.00 0.00 0.00 65 1016.5
20260831173039 86 215 3.0 9.0 0.00 0.00 0.00 65 1016.5
20260831172553 86 298 3.0 9.0 0.00 0.00 0.00 66 1016.5
20260831171547 85 311 3.0 12.0 0.00 0.00 0.00 65 1016.5
20260831170544 85 249 4.0 8.0 0.00 0.00 0.00 65 1016.6
20260831165524 86 227 3.0 7.0 0.00 0.00 0.00 65 1016.6
20260831165046 86 165 3.0 7.0 0.00 0.00 0.00 67 1016.6
20260831164556 86 360 2.0 6.0 0.00 0.00 0.00 66 1016.6
20260831164119 86 188 3.0 7.0 0.00 0.00 0.00 66 1016.6
20260831163039 85 188 2.0 7.0 0.00 0.00 0.00 67 1016.6
20260831162053 84 178 4.0 8.0 0.00 0.00 0.00 68 1016.7
20260831161600 84 155 4.0 7.0 0.00 0.00 0.00 68 1016.7
20260831161055 84 325 4.0 7.0 0.00 0.00 0.00 69 1016.8
20260831160044 84 207 3.0 7.0 0.00 0.00 0.00 71 1016.8
20260831155049 84 309 3.0 5.0 0.00 0.00 0.00 72 1016.6
20260831154041 83 237 2.0 5.0 0.00 0.00 0.00 74 1016.6
20260831153543 82 171 3.0 6.0 0.00 0.00 0.00 73 1016.6
20260831152534 82 360 2.0 6.0 0.00 0.00 0.00 75 1016.6
20260831152050 81 189 2.0 5.0 0.00 0.00 0.00 76 1016.6
20260831151022 81 191 2.0 4.0 0.00 0.00 0.00 78 1016.5
20260831145522 80 183 2.0 5.0 0.00 0.00 0.00 79 1016.5
20260831145028 80 183 2.0 5.0 0.00 0.00 0.00 78 1016.5
20260831144530 80 235 3.0 5.0 0.00 0.00 0.00 79 1016.5
20260831144057 80 182 2.0 4.0 0.00 0.00 0.00 80 1016.3
20260831143023 79 206 2.0 5.0 0.00 0.00 0.00 82 1016.3
20260831142532 79 160 2.0 4.0 0.00 0.00 0.00 82 1016.2
20260831142034 78 184 1.0 5.0 0.00 0.00 0.00 84 1016.2
20260831141544 78 184 2.0 5.0 0.00 0.00 0.00 84 1016.2
20260831140523 77 209 0.0 3.0 0.00 0.00 0.00 85 1016.0
20260831140051 77 209 1.0 3.0 0.00 0.00 0.00 85 1016.0
20260831135558 77 209 1.0 4.0 0.00 0.00 0.00 86 1016.2
20260831135103 77 209 1.0 4.0 0.00 0.00 0.00 86 1016.2
20260831134604 76 229 1.0 3.0 0.00 0.00 0.00 87 1016.2
20260831133537 76 229 2.0 5.0 0.00 0.00 0.00 88 1016.3
20260831133050 75 205 3.0 5.0 0.00 0.00 0.00 89 1016.3
20260831132556 75 202 1.0 4.0 0.00 0.00 0.00 91 1016.3
20260831132108 75 199 2.0 4.0 0.00 0.00 0.00 92 1016.3
20260831131039 74 130 0.0 2.0 0.00 0.00 0.00 93 1016.3
20260831130018 74 130 0.0 0.0 0.00 0.00 0.00 93 1016.3
20260831125546 74 130 0.0 0.0 0.00 0.00 0.00 93 1016.2
20260831125116 73 130 0.0 0.0 0.00 0.00 0.00 93 1016.2
20260831124520 73 130 0.0 0.0 0.00 0.00 0.00 93 1016.2
20260831124023 73 130 0.0 0.0 0.00 0.00 0.00 93 1016.2
20260831123536 73 130 0.0 0.0 0.00 0.00 0.00 93 1016.2
20260831123033 73 130 0.0 0.0 0.00 0.00 0.00 93 1016.2
20260831122549 73 130 0.0 0.0 0.00 0.00 0.00 93 1016.2
20260831121617 73 130 0.0 1.0 0.00 0.00 0.00 93 1016.2
20260831121115 73 130 0.0 0.0 0.00 0.00 0.00 93 1016.1
20260831120549 73 130 0.0 0.0 0.00 0.00 0.00 93 1016.1
20260831120055 72 130 0.0 0.0 0.00 0.00 0.00 93 1016.1
20260831115035 72 130 0.0 0.0 0.00 0.00 0.00 93 1016.0
20260831114535 72 130 0.0 0.0 0.00 0.00 0.00 93 1016.0
20260831114051 72 130 0.0 0.0 0.00 0.00 0.00 93 1015.9
20260831113606 72 130 0.0 0.0 0.00 0.00 0.00 93 1015.9
20260831113136 72 130 0.0 0.0 0.00 0.00 0.00 93 1015.9
20260831112526 72 130 0.0 0.0 0.00 0.00 0.00 93 1015.6
20260831112046 72 130 0.0 0.0 0.00 0.00 0.00 93 1015.6
20260831111557 72 124 0.0 0.0 0.00 0.00 0.00 93 1015.6
20260831110522 72 124 0.0 1.0 0.00 0.00 0.00 93 1015.5
20260831110052 72 124 0.0 2.0 0.00 0.00 0.00 93 1015.5
20260831105043 72 124 0.0 1.0 0.00 0.00 0.00 93 1015.5
20260831104601 72 124 0.0 0.0 0.00 0.00 0.00 93 1015.5
20260831104112 72 124 0.0 0.0 0.00 0.00 0.00 93 1015.5
20260831103517 72 124 0.0 0.0 0.00 0.00 0.00 93 1015.5
20260831103036 72 124 0.0 0.0 0.00 0.00 0.00 93 1015.5
20260831102553 72 124 0.0 0.0 0.00 0.00 0.00 93 1015.5
20260831102102 72 124 0.0 0.0 0.00 0.00 0.00 93 1015.5
20260831101018 72 124 0.0 0.0 0.00 0.00 0.00 92 1015.4
20260831100532 72 124 0.0 0.0 0.00 0.00 0.00 92 1015.4
20260831095521 72 124 0.0 0.0 0.00 0.00 0.00 92 1015.4
20260831095047 72 124 0.0 0.0 0.00 0.00 0.00 92 1015.4
20260831094549 72 124 0.0 0.0 0.00 0.00 0.00 92 1015.4
20260831093535 72 124 0.0 0.0 0.00 0.00 0.00 92 1015.5
20260831093050 72 124 0.0 0.0 0.00 0.00 0.00 92 1015.5
20260831092030 72 124 0.0 0.0 0.00 0.00 0.00 92 1015.5
20260831090532 72 124 0.0 0.0 0.00 0.00 0.00 92 1015.5
20260831090028 72 124 0.0 0.0 0.00 0.00 0.00 92 1015.5
20260831085544 72 124 0.0 0.0 0.00 0.00 0.00 92 1015.4
20260831085104 72 124 0.0 0.0 0.00 0.00 0.00 92 1015.4
20260831084524 72 124 0.0 0.0 0.00 0.00 0.00 92 1015.4
20260831084042 72 124 0.0 0.0 0.00 0.00 0.00 92 1015.4
20260831083556 72 124 0.0 0.0 0.00 0.00 0.00 92 1015.4
20260831083031 72 124 0.0 0.0 0.00 0.00 0.00 92 1015.4
20260831082547 72 124 0.0 0.0 0.00 0.00 0.00 92 1015.4
20260831081530 72 124 0.0 0.0 0.00 0.00 0.00 92 1015.4
20260831080529 72 124 0.0 0.0 0.00 0.00 0.00 92 1015.1
20260831080059 72 124 0.0 0.0 0.00 0.00 0.00 92 1015.1
20260831075029 71 124 0.0 0.0 0.00 0.00 0.00 92 1015.3
20260831074542 71 124 0.0 0.0 0.00 0.00 0.00 91 1015.3
20260831074057 71 124 0.0 0.0 0.00 0.00 0.00 91 1015.4
20260831073606 71 124 0.0 0.0 0.00 0.00 0.00 91 1015.4
20260831072536 71 124 0.0 0.0 0.00 0.00 0.00 91 1015.4
20260831072100 71 124 0.0 0.0 0.00 0.00 0.00 91 1015.4
20260831071032 71 124 0.0 0.0 0.00 0.00 0.00 91 1015.4
20260831070550 71 124 0.0 0.0 0.00 0.00 0.00 91 1015.4
20260831070050 71 124 0.0 0.0 0.00 0.00 0.00 91 1015.4
20260831065024 72 124 0.0 1.0 0.00 0.00 0.00 91 1015.5
20260831064553 72 124 0.0 0.0 0.00 0.00 0.00 90 1015.5
20260831063529 72 124 0.0 0.0 0.00 0.00 0.00 90 1015.9
20260831063040 71 124 0.0 0.0 0.00 0.00 0.00 90 1015.9
20260831062519 71 124 0.0 0.0 0.00 0.00 0.00 90 1015.9
20260831062039 71 124 0.0 0.0 0.00 0.00 0.00 90 1015.9
20260831061026 72 124 0.0 0.0 0.00 0.00 0.00 90 1015.9
20260831060543 72 124 0.0 0.0 0.00 0.00 0.00 90 1015.9
20260831060043 72 124 0.0 0.0 0.00 0.00 0.00 90 1015.9
20260831055546 72 124 0.0 0.0 0.00 0.00 0.00 90 1016.0
20260831055034 72 124 0.0 0.0 0.00 0.00 0.00 90 1016.0
20260831054531 72 124 0.0 0.0 0.00 0.00 0.00 89 1016.0
20260831054044 72 124 0.0 0.0 0.00 0.00 0.00 89 1016.0
20260831053549 72 124 0.0 0.0 0.00 0.00 0.00 89 1016.0
20260831053020 72 124 0.0 0.0 0.00 0.00 0.00 90 1016.0
20260831052541 72 124 0.0 0.0 0.00 0.00 0.00 90 1016.0
20260831052041 72 124 0.0 0.0 0.00 0.00 0.00 89 1016.0
20260831051529 72 124 0.0 0.0 0.00 0.00 0.00 89 1016.0
20260831051023 72 124 0.0 0.0 0.00 0.00 0.00 89 1016.0
20260831050517 72 124 0.0 0.0 0.00 0.00 0.00 89 1016.0
20260831050022 72 124 0.0 0.0 0.00 0.00 0.00 89 1016.0
20260831045533 72 124 0.0 0.0 0.00 0.00 0.00 89 1016.0
20260831045030 72 124 0.0 0.0 0.00 0.00 0.00 89 1016.0
20260831044524 72 124 0.0 0.0 0.00 0.00 0.00 88 1016.0
20260831044102 72 124 0.0 0.0 0.00 0.00 0.00 88 1016.0
20260831043541 72 124 0.0 0.0 0.00 0.00 0.00 88 1016.0
20260831043017 72 124 0.0 0.0 0.00 0.00 0.00 88 1016.0
20260831042547 72 124 0.0 0.0 0.00 0.00 0.00 88 1016.0
20260831042037 72 124 0.0 0.0 0.00 0.00 0.00 88 1016.0
20260831041532 72 124 0.0 0.0 0.00 0.00 0.00 88 1016.0
20260831041105 72 124 0.0 0.0 0.00 0.00 0.00 88 1016.1
20260831040517 72 124 0.0 0.0 0.00 0.00 0.00 88 1016.1
20260831040107 72 124 0.0 0.0 0.00 0.00 0.00 88 1016.1
20260831035047 73 124 0.0 0.0 0.00 0.00 0.00 88 1016.2
20260831034551 73 124 0.0 0.0 0.00 0.00 0.00 88 1016.2
20260831034114 73 124 0.0 0.0 0.00 0.00 0.00 87 1016.3
20260831033024 72 124 0.0 0.0 0.00 0.00 0.00 85 1016.3
20260831032542 73 124 0.0 0.0 0.00 0.00 0.00 86 1016.4
20260831032050 73 124 0.0 0.0 0.00 0.00 0.00 86 1016.4
20260831031547 73 124 0.0 0.0 0.00 0.00 0.00 86 1016.4
20260831031053 73 124 0.0 0.0 0.00 0.00 0.00 86 1016.4
20260831030601 73 124 0.0 0.0 0.00 0.00 0.00 85 1016.4
20260831025516 73 124 0.0 0.0 0.00 0.00 0.00 84 1016.3
20260831025054 73 124 0.0 0.0 0.00 0.00 0.00 85 1016.3
20260831024558 73 124 0.0 0.0 0.00 0.00 0.00 84 1016.3
20260831024049 74 124 0.0 0.0 0.00 0.00 0.00 85 1016.2
20260831023027 74 124 0.0 0.0 0.00 0.00 0.00 84 1016.2
20260831022532 74 124 0.0 0.0 0.00 0.00 0.00 84 1016.4
20260831022059 74 124 0.0 0.0 0.00 0.00 0.00 84 1016.4
20260831021026 74 124 0.0 0.0 0.00 0.00 0.00 84 1016.5
20260831020558 74 124 0.0 0.0 0.00 0.00 0.00 84 1016.5
20260831020107 74 124 0.0 0.0 0.00 0.00 0.00 84 1016.5
20260831015606 74 124 0.0 0.0 0.00 0.00 0.00 83 1016.5
20260831014535 75 124 0.0 1.0 0.00 0.00 0.00 83 1016.5
20260831014050 75 124 0.0 1.0 0.00 0.00 0.00 82 1016.4
20260831013601 75 124 0.0 0.0 0.00 0.00 0.00 81 1016.4
20260831012520 75 124 0.0 0.0 0.00 0.00 0.00 80 1016.5
20260831012045 75 124 0.0 0.0 0.00 0.00 0.00 79 1016.5
20260831011609 75 124 0.0 0.0 0.00 0.00 0.00 78 1016.5
20260831010523 76 124 0.0 0.0 0.00 0.00 0.00 78 1016.4
20260831010033 76 124 0.0 0.0 0.00 0.00 0.00 77 1016.4
20260831005609 76 124 0.0 0.0 0.00 0.00 0.00 76 1016.3
20260831005110 77 124 0.0 1.0 0.00 0.00 0.00 76 1016.3
20260831004557 77 124 0.0 1.0 0.00 0.00 0.00 76 1016.3
20260831003536 77 124 0.0 0.0 0.00 0.00 0.00 75 1016.0
20260831003047 78 124 0.0 0.0 0.00 0.00 0.00 75 1016.0
20260831002016 78 124 0.0 0.0 0.00 0.00 0.00 74 1016.0
20260831001053 78 124 0.0 0.0 0.00 0.00 0.00 73 1015.8
20260831000557 78 124 0.0 0.0 0.00 0.00 0.00 72 1015.8
20260831000046 78 124 0.0 1.0 0.00 0.00 0.00 72 1015.8
20260830235605 79 124 0.0 1.0 0.00 0.00 0.00 72 1015.5
20260830235111 79 124 0.0 0.0 0.00 0.00 0.00 72 1015.5
20260830234052 80 124 0.0 0.0 0.00 0.00 0.00 72 1015.3
20260830233022 80 124 0.0 0.0 0.00 0.00 0.00 72 1015.3
20260830232544 81 124 0.0 0.0 0.00 0.00 0.00 72 1015.1
20260830231528 81 124 0.0 1.0 0.00 0.00 0.00 70 1015.1
20260830231100 81 124 0.0 1.0 0.00 0.00 0.00 70 1014.9
20260830230031 81 124 0.0 1.0 0.00 0.00 0.00 69 1014.9
20260830225603 82 124 0.0 2.0 0.00 0.00 0.00 68 1014.9
20260830225021 82 124 1.0 3.0 0.00 0.00 0.00 67 1014.9
20260830224523 82 124 1.0 4.0 0.00 0.00 0.00 65 1014.9
20260830224037 82 124 2.0 4.0 0.00 0.00 0.00 64 1015.0
20260830223608 82 124 2.0 4.0 0.00 0.00 0.00 64 1015.0
20260830222544 82 126 0.0 4.0 0.00 0.00 0.00 66 1014.9
20260830222046 82 126 2.0 4.0 0.00 0.00 0.00 65 1014.9
20260830221020 82 118 1.0 3.0 0.00 0.00 0.00 66 1014.8
20260830220531 82 118 1.0 2.0 0.00 0.00 0.00 68 1014.8
20260830220043 81 118 0.0 2.0 0.00 0.00 0.00 69 1014.8
20260830215020 81 118 0.0 1.0 0.00 0.00 0.00 68 1014.9
20260830214538 81 118 0.0 1.0 0.00 0.00 0.00 68 1014.9
20260830214037 81 118 0.0 1.0 0.00 0.00 0.00 69 1014.8
20260830213559 81 118 0.0 2.0 0.00 0.00 0.00 68 1014.8
20260830212528 81 118 0.0 2.0 0.00 0.00 0.00 69 1014.6
20260830211549 81 118 0.0 2.0 0.00 0.00 0.00 67 1014.6
20260830210549 80 118 2.0 4.0 0.00 0.00 0.00 66 1014.3
20260830210032 80 118 2.0 4.0 0.00 0.00 0.00 67 1014.3
20260830205534 81 119 2.0 5.0 0.00 0.00 0.00 66 1014.4
20260830205041 81 128 3.0 4.0 0.00 0.00 0.00 66 1014.4
20260830204535 81 110 0.0 3.0 0.00 0.00 0.00 67 1014.4
20260830204051 81 111 2.0 3.0 0.00 0.00 0.00 65 1014.5
20260830203038 81 111 0.0 4.0 0.00 0.00 0.00 67 1014.5
20260830202553 81 148 1.0 4.0 0.00 0.00 0.00 66 1014.9
20260830202104 81 225 1.0 3.0 0.00 0.00 0.00 67 1014.9
20260830201544 80 225 1.0 3.0 0.00 0.00 0.00 67 1014.9
20260830201057 80 117 0.0 5.0 0.00 0.00 0.00 68 1015.0
20260830200616 79 117 1.0 5.0 0.00 0.00 0.00 68 1015.0
20260830195520 80 125 0.0 3.0 0.00 0.00 0.00 69 1016.1
20260830195025 80 146 1.0 2.0 0.00 0.00 0.00 67 1016.1
20260830194552 80 146 1.0 2.0 0.00 0.00 0.00 67 1016.1
20260830194118 80 146 0.0 1.0 0.00 0.00 0.00 68 1017.0
20260830193525 81 146 0.0 2.0 0.00 0.00 0.00 66 1017.0